FW4302 Weather Reports


time (UTC)temp
C
wind
direction
speed
KPH
gust
KPH
rain 1hr
cm
rain 24hr
cm
rain mn
cm
humidity
%
barometer
mb
20260504234512 22 54 1.6 17.7 0.00 0.00 0.00 31 1008.0
20260504233017 22 146 4.8 17.7 0.00 0.00 0.00 31 1008.0
20260504231522 22 346 3.2 19.3 0.00 0.00 0.00 33 1008.1
20260504230008 22 360 3.2 14.5 0.00 0.00 0.00 33 1008.2
20260504224508 22 165 3.2 12.9 0.00 0.00 0.00 34 1008.1
20260504223007 22 94 4.8 22.5 0.00 0.00 0.00 33 1008.1
20260504221506 22 69 8.0 20.9 0.00 0.00 0.00 35 1008.4
20260504220012 22 20 3.2 20.9 0.00 0.00 0.00 34 1008.4
20260504214503 22 146 4.8 14.5 0.00 0.00 0.00 34 1008.7
20260504213007 22 137 9.7 17.7 0.00 0.00 0.00 34 1008.8
20260504211600 22 82 4.8 16.1 0.00 0.00 0.00 35 1008.9
20260504210109 21 144 4.8 14.5 0.00 0.00 0.00 36 1009.1
20260504204603 21 331 6.4 16.1 0.00 0.00 0.00 36 1009.1
20260504203056 21 116 8.0 17.7 0.00 0.00 0.00 36 1009.2
20260504201554 21 344 4.8 16.1 0.00 0.00 0.00 38 1009.2
20260504200051 21 42 3.2 14.5 0.00 0.00 0.00 42 1009.2
20260504194605 20 210 6.4 17.7 0.00 0.00 0.00 37 1009.3
20260504193051 20 83 3.2 16.1 0.00 0.00 0.00 40 1009.3
20260504191550 20 146 4.8 14.5 0.00 0.00 0.00 40 1009.4
20260504190108 20 12 6.4 19.3 0.00 0.00 0.00 38 1009.5
20260504184555 20 40 4.8 16.1 0.00 0.00 0.00 40 1009.4
20260504183044 20 111 3.2 17.7 0.00 0.00 0.00 44 1009.4
20260504181546 20 50 3.2 19.3 0.00 0.00 0.00 41 1009.5
20260504180110 19 34 4.8 22.5 0.00 0.00 0.00 41 1009.6
20260504174539 18 360 4.8 16.1 0.00 0.00 0.00 40 1009.7
20260504173138 18 116 3.2 20.9 0.00 0.00 0.00 42 1009.7
20260504171536 18 355 3.2 20.9 0.00 0.00 0.00 41 1009.7
20260504120112 6 246 0.0 4.8 0.00 0.00 0.00 87 1008.4
20260504081525 8 282 1.6 4.8 0.00 0.00 0.00 79 1008.3
20260504050009 13 293 0.0 4.8 0.00 0.00 0.00 63 1008.0
20260504044508 15 244 3.2 4.8 0.00 0.00 0.00 50 1008.0
20260504043008 15 243 1.6 6.4 0.00 0.00 0.00 50 1008.1
20260504041507 16 227 3.2 6.4 0.00 0.00 0.00 50 1008.1
20260504040009 16 246 0.0 3.2 0.00 0.00 0.00 51 1008.0
20260504034506 16 233 0.0 4.8 0.00 0.00 0.00 49 1007.8
20260504033005 16 244 0.0 3.2 0.00 0.00 0.00 51 1007.7
20260504031504 17 256 1.6 4.8 0.00 0.00 0.00 49 1007.6
20260504030104 17 41 1.6 6.4 0.00 0.00 0.00 50 1007.8
20260504024604 17 315 0.0 3.2 0.00 0.00 0.00 51 1007.7
20260504023059 17 315 1.6 4.8 0.00 0.00 0.00 56 1007.6
20260504021610 18 315 1.6 3.2 0.00 0.00 0.00 49 1007.7
20260504014554 21 228 0.0 3.2 0.00 0.00 0.00 38 1007.9
20260504013057 23 248 1.6 6.4 0.00 0.00 0.00 35 1008.1
20260504011555 23 221 0.0 4.8 0.00 0.00 0.00 34 1008.2
20260504010057 23 355 1.6 6.4 0.00 0.00 0.00 32 1008.3
20260504004552 24 155 1.6 6.4 0.00 0.00 0.00 33 1008.4
20260504003049 24 251 0.0 9.7 0.00 0.00 0.00 32 1008.7
20260504001604 24 301 1.6 8.0 0.00 0.00 0.00 29 1008.8
20260504000046 25 281 4.8 8.0 0.00 0.00 0.00 30 1008.8